Wind_Speed
25 24 25 24 25 26 28 30 28 27 26 24 23 23 24 26 27 29 31 31 31 30 29 29 28 27 25 24 23 22 21 20 20 20 22 24 24 25 26 26 26 25 24 24 23 22 21 20 20 18 18 17 16 15 15 15 14 14 15 14 14 13 13 14 14 15 15 16 16 16 16 16 16 16 16 16 16 17 17 18 19 20 22 23 25
23 24 25 25 24 22 26 30 29 30 29 25 24 24 24 25 26 27 29 31 31 31 30 30 30 29 27 26 25 25 23 22 21 21 21 22 23 25 26 26 26 25 25 24 23 22 21 21 20 19 19 19 17 17 16 16 16 16 16 16 15 14 14 15 15 15 16 17 17 17 17 17 17 17 17 17 17 17 17 18 20 21 22 24 26
22 21 21 23 24 22 24 27 29 32 31 28 26 25 24 24 25 26 28 30 32 32 31 32 31 30 29 28 27 27 25 24 24 23 22 22 23 24 25 25 25 26 25 24 23 23 22 21 21 20 20 20 19 18 17 17 17 17 17 17 16 16 15 15 16 17 17 17 18 18 18 18 18 18 18 18 19 18 18 19 20 22 23 24 26
22 21 20 21 22 21 23 24 26 29 30 29 28 26 24 24 25 25 26 28 30 32 32 32 32 31 31 30 29 29 27 26 26 25 24 23 23 24 24 25 25 25 25 24 24 23 23 22 22 22 21 21 20 19 19 18 18 18 18 18 17 17 17 16 17 17 17 18 18 18 19 18 19 19 19 19 20 19 19 19 21 22 24 25 26
21 22 23 23 22 21 22 22 24 27 27 25 27 28 26 24 24 24 25 26 28 31 33 33 33 33 33 32 31 31 29 28 28 27 26 25 25 25 25 26 26 26 26 25 25 24 23 23 23 23 22 22 22 21 20 20 20 20 19 19 18 17 18 18 18 18 18 19 19 19 19 19 19 19 19 20 20 20 19 20 22 23 24 25 26
21 21 22 22 23 24 25 23 22 24 25 24 26 29 30 27 24 23 23 25 26 28 31 33 35 35 35 34 34 32 31 30 30 29 28 27 26 26 27 26 26 26 26 26 26 25 24 24 24 24 23 24 23 22 21 21 22 21 21 20 19 19 19 19 19 19 19 19 20 20 19 19 19 19 19 20 20 20 19 20 22 24 24 25 27
22 21 22 21 21 23 27 27 25 25 26 27 26 24 28 29 26 24 23 24 25 27 29 32 35 36 37 36 35 34 33 32 32 31 30 29 28 27 28 27 27 27 27 27 27 26 25 25 25 25 25 25 25 24 23 22 23 22 22 21 20 20 20 20 20 20 20 20 21 21 20 20 20 19 19 20 20 19 19 21 23 24 24 25 27
23 22 24 24 22 22 26 29 30 30 29 29 28 24 24 29 29 27 26 24 25 26 28 31 33 36 37 37 37 36 35 35 34 33 32 31 29 29 29 28 28 28 28 28 28 27 27 27 27 27 27 27 26 26 24 24 24 23 23 22 21 21 21 22 22 21 21 21 22 22 22 21 20 19 19 19 20 19 19 21 23 23 23 25 28
25 25 26 27 26 25 26 28 30 32 33 32 32 30 26 28 30 29 29 28 27 27 28 31 33 35 36 37 38 38 37 36 36 35 34 32 31 31 31 30 30 30 30 30 30 30 29 29 29 28 28 28 28 27 26 25 24 24 23 22 22 22 22 23 23 23 22 22 23 23 23 22 21 20 19 19 19 19 20 22 23 23 24 26 28
26 27 28 29 29 28 27 28 28 29 32 33 34 34 31 29 30 30 31 31 31 30 30 31 33 35 36 36 37 38 38 38 38 37 36 34 34 33 33 32 32 32 32 31 31 31 31 30 30 30 29 29 29 28 28 27 26 25 24 23 23 23 23 24 24 24 24 24 24 25 24 24 23 21 20 19 19 20 21 23 25 25 25 26 28
28 29 29 30 30 30 29 29 28 28 29 32 34 37 37 34 33 33 32 34 34 33 33 32 33 34 35 36 36 37 37 38 39 39 38 36 35 35 35 35 34 34 34 33 33 32 32 32 32 31 31 30 30 30 29 28 27 26 26 25 25 25 25 25 25 25 25 25 25 26 26 25 25 23 21 20 20 21 22 24 27 26 25 25 27
29 30 31 32 31 31 32 31 31 30 29 31 33 36 37 37 37 36 34 36 36 36 36 36 35 35 35 35 36 36 37 37 38 39 40 38 37 36 37 37 37 36 36 35 35 34 34 34 34 33 32 31 31 31 31 30 29 29 28 27 27 27 26 26 26 26 26 27 27 27 27 27 27 25 24 23 22 23 24 26 28 26 24 25 27
30 30 31 33 33 33 33 33 34 34 32 33 33 33 35 36 37 37 37 38 38 38 40 39 39 38 36 35 36 37 36 36 36 37 38 39 39 39 38 39 39 38 38 38 37 36 35 35 35 35 33 32 33 33 32 32 32 31 31 30 29 28 28 27 27 27 27 28 29 29 28 27 28 27 26 25 24 25 26 27 28 26 25 25 26
30 30 31 32 34 34 34 34 35 35 35 35 35 34 34 35 37 38 40 42 41 41 41 41 42 42 40 38 38 38 37 35 34 35 37 37 38 39 40 41 41 41 40 39 39 38 38 36 36 37 35 34 35 35 34 33 34 34 33 32 31 30 29 29 29 29 28 29 29 30 29 28 28 28 28 27 26 26 27 28 27 27 26 26 27
29 30 30 31 32 34 34 35 36 36 36 37 37 37 37 37 38 38 40 43 45 46 43 41 42 43 43 43 43 41 38 36 35 34 36 36 37 38 40 41 42 42 42 41 41 40 40 39 38 38 38 37 37 37 36 36 36 36 35 34 32 32 31 31 30 30 30 29 30 30 30 30 29 29 29 28 28 28 28 28 28 27 26 27 27
27 28 30 31 31 32 33 35 36 37 37 38 38 39 39 39 40 40 40 41 43 48 48 45 44 42 41 42 45 46 41 37 37 37 37 36 36 37 38 40 42 43 43 43 43 42 42 42 40 40 39 38 39 39 39 38 38 37 37 36 34 34 33 32 32 32 32 31 31 31 31 31 31 30 30 30 30 29 29 28 28 27 26 28 29
27 27 28 30 31 31 32 34 36 37 38 38 38 39 40 40 41 41 41 39 39 44 48 49 49 48 46 40 39 41 42 41 40 39 38 38 37 37 38 39 40 42 43 44 44 44 44 44 43 42 41 40 40 40 41 40 40 39 38 38 37 36 35 34 34 34 34 33 32 32 32 32 31 31 30 30 30 29 28 28 28 27 27 29 31
27 27 27 28 29 31 32 33 35 36 37 38 38 39 40 41 42 42 41 40 39 41 45 48 51 53 53 49 42 38 39 43 44 41 41 41 40 39 38 38 39 40 43 44 44 45 45 45 45 44 43 42 41 41 42 42 42 40 40 40 39 38 37 36 35 37 36 34 33 33 33 32 31 30 30 30 29 28 28 28 28 29 30 32 32
27 27 27 28 29 30 31 32 33 35 37 38 39 39 41 42 43 43 42 42 42 42 42 44 49 52 51 53 52 45 40 41 44 44 44 43 43 43 41 40 39 39 41 43 44 46 46 45 45 46 45 44 43 43 43 44 43 41 41 42 42 40 39 38 37 39 39 36 35 35 34 32 30 29 29 29 29 29 29 29 30 32 33 32 30
29 29 29 28 29 30 31 32 33 34 35 38 39 40 41 42 43 44 43 43 44 44 44 43 45 47 47 50 53 51 46 45 45 46 47 46 45 45 45 44 43 41 41 42 44 45 46 45 46 47 47 46 45 44 45 46 45 43 42 44 45 43 41 40 39 40 40 38 37 36 36 34 31 30 29 29 29 30 30 30 32 33 32 30 28
30 31 30 30 30 30 31 33 34 34 35 37 38 40 42 43 43 44 45 45 45 45 45 45 45 45 46 48 50 51 51 49 47 46 48 51 50 48 47 47 47 45 43 43 44 45 45 45 46 47 47 46 46 45 46 46 45 43 43 44 46 45 43 41 40 41 41 39 38 38 37 36 33 31 30 30 31 30 30 31 32 32 31 30 29
31 31 31 32 31 31 32 33 34 35 36 37 38 40 42 43 44 45 46 46 47 47 46 46 47 46 47 48 49 51 51 51 50 48 47 49 52 53 51 50 49 48 47 46 46 46 46 45 45 46 46 46 45 45 46 46 45 44 43 44 46 45 43 41 40 41 41 40 40 39 38 37 35 33 31 31 31 31 30 30 31 31 31 32 32
30 31 32 33 33 33 33 33 34 36 37 38 38 40 42 43 45 46 47 47 47 48 48 48 48 48 49 49 49 49 49 50 51 52 51 48 49 52 53 53 52 50 49 49 49 49 48 47 46 45 45 45 45 45 46 46 46 45 44 44 45 45 43 41 40 41 42 41 41 39 39 38 36 34 32 32 32 31 31 31 31 31 31 33 33
30 30 31 32 33 34 34 35 35 36 37 39 40 40 41 43 46 47 47 48 48 49 50 50 50 51 51 51 51 50 50 51 49 51 53 50 48 49 50 54 55 52 50 50 51 52 51 50 48 46 45 44 45 46 46 46 47 47 46 45 45 46 43 41 41 42 42 41 41 39 39 39 37 35 33 33 32 32 32 32 32 32 33 34 34
31 31 31 32 33 34 35 36 36 37 38 39 41 42 42 43 46 48 48 48 49 50 51 51 52 53 53 53 54 53 53 54 52 52 54 53 51 49 48 52 56 54 51 50 50 52 53 53 51 50 48 46 45 46 45 45 45 45 46 46 46 46 44 42 43 43 43 42 41 40 39 40 38 36 34 33 33 33 33 33 33 33 34 34 34
33 33 33 33 34 34 35 36 37 38 39 40 41 42 43 44 45 47 49 50 51 51 52 53 53 54 56 56 57 57 57 57 56 56 55 55 54 51 49 51 56 55 54 54 53 52 53 54 54 55 53 50 48 47 45 42 41 42 44 46 46 46 45 44 44 44 44 43 42 40 40 40 39 37 35 34 33 34 34 34 34 34 34 34 33
36 36 36 36 36 36 36 36 37 38 39 41 42 43 44 45 45 47 49 51 52 52 53 54 54 55 57 58 59 60 60 60 59 58 58 57 56 54 52 52 53 55 54 54 55 57 56 55 56 57 57 55 53 51 47 43 40 41 43 44 45 45 45 45 45 45 45 44 42 41 41 40 39 38 36 34 34 34 34 34 34 34 33 33 33
38 39 39 39 39 39 39 38 38 39 39 41 42 44 45 46 47 47 48 50 52 53 54 54 55 57 57 58 60 60 60 61 61 61 60 59 58 56 55 53 52 54 54 52 53 56 57 57 57 57 57 58 56 53 50 46 45 45 44 43 43 44 44 45 45 45 45 44 43 42 41 41 39 38 36 34 34 34 33 34 34 34 33 32 32
39 40 40 41 41 41 41 41 41 40 40 41 42 43 45 46 48 48 49 50 52 53 54 55 55 57 58 59 60 61 61 61 62 62 61 60 59 58 57 56 54 53 54 55 54 54 53 54 57 58 57 57 56 54 53 51 49 49 47 45 43 43 44 44 44 44 44 43 42 42 42 41 39 38 35 34 34 33 33 33 33 33 33 32 32
40 41 41 42 42 43 43 43 43 42 42 42 42 43 44 46 48 49 50 51 52 53 55 55 55 56 58 59 61 61 61 61 61 62 62 62 61 60 59 58 57 55 54 55 57 57 54 51 53 58 59 55 53 54 55 54 53 51 49 47 45 45 44 44 43 42 42 42 42 41 41 41 39 37 35 34 34 33 33 33 32 32 32 32 32
42 42 43 43 44 44 44 44 44 44 44 43 43 43 43 45 47 48 49 51 52 54 55 56 56 57 57 58 60 61 62 62 61 61 62 62 62 62 61 60 59 57 56 55 56 57 58 54 50 54 58 54 50 52 54 55 55 53 51 49 48 48 46 44 42 41 41 40 41 41 40 40 38 36 34 33 33 33 32 32 32 32 32 32 33
44 44 44 44 45 45 45 45 44 44 44 44 44 44 43 44 46 47 48 50 51 53 55 56 57 57 58 58 58 59 60 62 61 61 61 62 62 62 62 62 60 59 58 58 57 55 56 55 51 52 55 54 51 49 49 52 56 55 52 51 51 50 47 45 43 41 40 40 40 40 39 38 37 35 33 33 33 32 32 33 32 32 32 33 35
46 46 46 45 45 45 46 46 45 45 45 45 45 45 45 45 45 46 47 49 50 51 53 55 57 58 58 58 58 58 59 60 60 60 60 61 61 61 62 63 62 61 60 60 60 56 53 52 50 51 52 53 52 47 42 45 51 56 55 52 53 52 49 47 45 43 41 40 40 39 38 37 35 34 33 33 33 33 33 34 33 33 34 35 37
48 47 47 46 46 46 46 47 47 46 46 46 46 47 47 46 46 46 47 48 49 50 51 52 55 57 59 59 59 58 59 59 59 59 60 60 60 60 61 62 61 61 61 61 61 59 55 51 51 53 53 52 52 48 40 37 41 50 56 54 53 52 50 48 46 44 43 42 41 39 38 36 35 34 34 34 34 34 35 35 35 35 35 36 38
49 48 48 47 47 47 47 48 49 49 48 47 47 48 48 48 48 48 48 48 49 50 50 51 52 55 57 59 59 59 59 60 59 59 59 59 60 60 60 61 61 61 60 61 62 62 59 55 53 56 55 52 51 48 42 37 36 42 50 54 54 51 49 49 47 45 44 43 42 40 38 37 36 35 35 35 35 36 36 36 36 36 36 37 39
48 49 48 48 48 48 48 48 49 50 50 49 49 49 49 50 50 50 49 49 50 50 51 51 51 52 55 57 59 59 59 60 60 59 59 59 60 60 60 60 61 60 58 59 62 62 62 59 57 57 55 51 50 50 47 41 36 37 42 48 53 52 50 49 48 46 45 45 45 42 40 39 39 38 37 38 38 38 37 37 37 37 37 38 39
49 49 49 49 49 48 48 49 50 50 51 51 51 51 51 51 51 51 51 51 51 51 51 51 52 52 53 54 56 57 59 60 60 60 59 58 59 60 60 60 61 60 58 59 61 62 63 62 60 59 56 52 50 52 51 43 37 38 40 41 46 51 51 49 48 48 48 48 47 44 43 44 43 41 41 40 40 40 38 37 37 38 39 39 40
49 49 49 49 49 49 49 50 50 51 52 52 53 53 53 53 53 53 53 53 53 53 53 52 52 52 52 53 53 55 56 58 58 59 59 59 58 59 60 60 61 61 60 58 58 60 63 62 61 61 59 54 51 53 53 45 38 40 43 41 40 44 48 50 49 49 52 52 50 48 47 48 47 45 43 42 42 41 39 38 38 39 39 40 41
49 50 50 50 50 50 50 50 50 51 52 52 53 54 54 54 54 55 55 55 54 54 54 54 54 53 53 53 53 53 54 56 57 58 58 58 58 58 59 60 61 61 61 59 57 59 61 62 62 62 61 59 55 55 56 51 45 45 46 45 42 40 44 49 52 53 54 53 53 52 52 52 51 47 45 44 43 42 40 38 38 39 40 41 42
50 50 50 50 51 51 51 51 51 51 52 52 53 54 54 55 55 56 56 56 56 56 56 56 56 55 55 54 54 54 54 54 56 57 58 58 58 59 59 59 60 61 61 60 58 58 59 60 62 62 62 63 62 61 62 60 54 50 48 47 45 44 43 45 48 52 54 55 55 54 54 54 52 48 45 44 42 41 40 39 39 39 40 42 42
50 51 51 51 51 52 52 52 52 52 52 52 52 53 54 55 56 57 57 57 58 57 57 57 57 57 57 56 55 55 55 55 56 57 57 57 58 59 59 59 60 61 61 60 60 59 58 58 60 62 64 65 65 65 66 64 57 51 50 49 48 48 48 46 44 44 48 54 57 55 53 52 49 47 46 44 42 41 41 39 39 40 41 42 41
49 50 51 51 51 51 51 52 52 52 52 52 52 53 54 55 56 57 58 58 58 58 58 58 58 58 59 58 57 56 56 56 56 57 57 57 58 58 58 59 60 60 60 60 60 59 59 59 60 63 64 65 66 65 65 64 59 53 53 51 48 49 50 49 46 41 41 45 50 54 53 50 48 48 47 45 43 42 41 39 38 40 42 42 41
47 48 48 49 50 50 50 50 51 50 50 51 51 52 53 54 56 57 58 58 58 59 59 59 59 59 59 60 60 58 57 57 56 57 57 57 58 58 58 59 60 61 60 60 60 60 59 59 60 62 60 58 60 63 62 61 58 53 51 50 48 50 50 48 45 43 41 42 45 50 52 50 48 48 47 45 43 42 41 39 38 40 42 42 41
46 46 47 48 48 49 49 50 50 50 49 50 50 51 52 54 55 56 57 58 59 59 59 60 60 60 60 60 61 60 59 58 57 57 57 58 58 59 59 59 59 60 61 61 60 59 58 57 58 60 58 54 56 60 60 58 53 50 51 51 49 49 49 47 45 44 43 43 42 43 45 46 47 47 46 45 43 42 41 38 38 40 43 42 41
46 46 47 48 48 49 50 50 50 50 50 50 51 52 52 53 54 56 56 57 58 59 59 60 60 61 61 61 61 61 61 60 59 58 57 58 59 60 60 60 59 59 60 61 60 59 58 57 56 57 58 59 60 62 61 57 52 49 51 53 50 49 48 47 47 47 46 45 43 40 42 44 45 46 46 45 43 43 41 38 37 41 43 42 41
46 47 48 48 49 49 50 51 51 51 52 52 53 53 53 54 55 56 56 57 58 58 59 60 60 61 61 61 61 61 61 61 60 59 58 58 59 60 61 61 60 59 59 60 60 60 60 60 59 57 57 60 63 62 61 58 53 51 50 49 48 48 49 49 49 49 49 49 47 44 43 44 45 46 46 45 44 43 40 37 37 40 42 41 40
48 49 49 49 50 50 51 51 52 52 53 54 54 54 55 55 56 57 57 57 58 58 59 60 61 61 61 61 61 61 62 62 61 61 61 60 59 60 61 62 61 59 59 60 60 60 59 60 61 60 58 59 60 60 59 57 55 52 49 47 49 52 54 53 50 48 47 48 47 45 44 44 45 46 45 43 43 42 39 36 37 39 40 40 40
49 50 50 50 51 51 52 52 52 52 53 54 54 55 56 56 57 58 58 59 59 58 59 60 61 61 61 61 61 61 61 62 61 62 63 63 61 60 60 62 61 60 60 60 60 60 60 60 60 61 61 59 58 57 58 57 54 50 46 47 53 56 56 52 48 46 45 46 47 46 45 45 45 45 44 41 41 42 39 36 36 38 39 40 40
50 50 51 51 52 52 52 52 52 52 52 53 54 54 55 56 57 58 59 60 60 60 59 60 60 62 62 61 61 61 60 60 61 62 63 65 64 62 60 61 62 61 61 60 59 60 60 60 59 60 61 60 58 58 58 57 54 50 47 49 53 54 54 53 50 48 47 48 49 46 45 45 44 44 42 40 41 42 39 37 37 37 39 40 41
50 51 51 52 51 51 50 50 51 51 51 52 53 54 55 56 57 58 59 61 61 61 61 61 61 62 62 62 62 62 61 60 60 61 62 64 66 63 61 61 62 62 61 60 59 59 59 59 59 59 60 60 60 60 58 57 54 50 48 50 51 51 52 53 52 50 49 50 51 48 46 45 44 42 41 41 41 41 39 38 38 37 38 40 41
51 51 51 50 49 48 49 50 51 52 52 53 54 54 54 55 56 57 59 60 60 60 61 61 62 62 63 63 63 63 63 62 61 61 62 64 66 65 63 62 62 62 62 60 59 58 58 58 58 58 59 60 61 61 60 59 56 51 50 52 51 50 52 52 52 51 50 50 50 50 48 47 46 44 42 42 43 42 40 40 39 38 38 40 42
Wind_Direction
221 225 223 222 225 224 217 213 211 211 212 211 212 216 218 218 217 217 219 220 222 221 220 219 221 222 221 221 222 224 226 228 228 225 227 228 228 230 228 223 220 221 224 227 228 229 232 235 237 240 243 247 250 255 260 266 271 274 277 282 288 295 300 305 312 315 319 324 329 333 335 338 339 338 338 338 338 340 342 344 347 349 351 351 350
215 221 225 226 228 226 218 215 214 213 213 210 210 213 216 218 217 218 219 221 223 224 224 223 223 223 224 224 224 224 223 224 226 225 226 227 227 228 229 227 224 225 227 229 232 233 236 238 240 241 245 248 251 255 260 266 270 273 277 280 285 292 296 301 307 311 315 319 325 329 331 334 335 335 335 336 337 338 340 341 343 345 347 348 349
212 216 225 225 227 227 220 218 216 215 214 210 209 211 214 217 218 218 219 221 223 225 226 227 227 226 227 227 227 227 226 225 226 226 226 226 227 227 228 229 228 230 232 233 236 237 239 241 242 244 246 250 252 256 261 266 269 273 276 279 284 289 294 298 303 307 312 315 320 324 326 329 331 331 333 335 336 337 338 339 341 342 345 346 347
219 220 225 224 228 230 224 221 215 214 216 212 208 209 211 214 218 218 219 221 223 225 228 230 231 231 230 230 229 229 229 229 229 229 228 226 227 228 228 230 231 233 236 238 239 241 243 244 245 246 249 252 254 257 262 266 268 271 274 277 282 287 291 295 299 304 308 311 314 318 321 323 326 328 330 332 333 334 336 338 339 341 343 343 344
231 230 232 233 236 234 228 224 218 215 219 220 214 212 211 212 216 217 219 221 223 225 228 230 232 233 234 233 232 231 231 231 232 233 232 230 229 229 229 230 233 235 238 241 243 244 246 247 248 249 251 254 256 258 261 265 267 270 273 276 280 284 288 291 294 299 303 307 309 312 315 317 322 324 326 329 331 331 332 335 338 339 340 341 342
242 240 240 242 240 236 236 237 233 225 223 226 224 218 212 210 214 216 218 221 223 225 228 231 232 233 234 235 235 234 233 233 234 236 235 234 233 232 233 232 233 236 239 242 244 245 247 247 249 251 253 255 257 258 260 263 267 269 272 275 278 281 284 288 291 295 299 303 304 306 309 312 316 319 322 326 329 328 329 332 335 336 337 338 340
248 247 245 249 246 240 241 242 242 237 230 230 232 227 214 211 213 214 217 221 223 225 227 231 233 235 236 237 237 237 237 236 236 238 238 238 237 237 237 236 236 237 239 241 243 245 245 246 248 250 253 255 257 258 259 262 266 269 272 274 277 279 282 285 289 293 296 299 300 302 304 306 310 314 318 324 327 326 328 331 333 334 335 336 338
252 252 250 251 250 244 240 239 240 240 237 236 240 239 223 216 218 216 217 221 223 226 227 229 233 235 237 238 239 239 239 239 239 239 240 240 241 241 241 240 240 240 240 240 242 243 244 245 246 248 251 254 257 258 259 261 264 267 270 273 276 278 281 284 287 290 293 295 297 299 300 301 304 309 315 322 326 325 327 331 333 334 333 333 336
253 253 252 251 252 249 245 241 240 240 239 239 241 242 235 227 224 220 220 222 223 225 228 230 230 233 235 237 238 239 240 241 241 241 241 242 243 243 243 243 242 242 242 242 242 243 244 245 247 248 251 254 257 259 260 260 262 265 267 271 273 275 279 282 285 288 291 293 294 295 297 297 299 304 310 317 322 323 324 327 329 331 330 330 333
254 253 252 251 252 253 250 246 245 243 242 241 241 242 242 236 230 226 224 224 226 226 228 231 231 231 233 234 236 238 239 241 242 243 242 242 243 245 246 246 245 245 244 244 244 244 245 246 247 249 251 253 256 258 260 260 260 262 265 267 269 272 275 278 283 287 290 291 291 292 293 294 296 300 305 312 316 318 320 322 324 325 326 327 330
253 253 253 252 251 251 251 250 249 247 243 244 244 242 243 241 235 232 229 227 227 228 229 231 233 233 233 234 235 235 237 239 241 243 244 243 243 244 246 247 247 247 246 246 245 246 247 247 248 249 251 252 255 257 258 259 260 261 262 264 266 269 273 277 282 287 289 290 290 290 291 292 293 297 302 306 310 312 315 319 322 322 323 325 327
251 252 253 253 251 249 248 248 249 248 245 244 247 246 245 244 237 234 236 233 231 231 231 232 234 235 235 236 236 235 235 236 238 241 244 244 244 244 246 248 248 248 248 248 247 245 246 248 249 249 251 253 254 256 258 260 260 261 262 263 266 269 273 278 282 285 287 289 290 289 289 290 291 295 300 302 305 308 311 317 322 323 322 323 325
252 249 249 251 251 249 247 246 246 247 247 247 249 249 248 247 240 237 239 238 236 235 234 234 235 235 235 236 237 237 236 236 236 238 241 244 244 244 245 247 249 250 250 250 250 248 246 247 250 250 251 253 255 257 259 262 263 263 264 265 268 272 275 279 282 285 287 288 289 289 288 289 290 293 298 301 303 305 308 314 320 321 320 321 323
254 252 250 249 250 251 250 249 247 247 247 247 248 248 249 249 244 241 240 240 240 238 237 237 237 237 236 236 237 237 237 237 237 237 239 241 243 244 245 246 248 250 251 251 252 252 250 248 249 251 252 253 256 258 260 263 264 265 266 267 270 273 276 280 283 285 287 288 288 288 289 289 290 292 296 300 301 304 307 310 316 318 317 318 321
254 255 255 252 251 251 251 251 251 249 248 247 247 247 248 248 247 243 241 242 241 240 239 238 238 238 237 238 240 239 237 237 238 239 239 240 241 243 245 246 246 248 250 251 252 253 254 252 251 252 253 253 256 259 261 263 265 266 267 268 271 273 276 279 282 285 286 287 287 288 290 290 291 293 295 298 299 302 305 308 312 314 315 317 319
255 255 256 255 254 253 253 252 252 251 250 249 248 248 247 247 249 246 243 244 242 239 240 241 241 239 238 239 238 236 236 236 237 239 240 241 242 243 244 246 247 247 248 249 251 252 253 254 253 253 253 255 257 259 261 262 263 266 267 269 270 272 275 278 281 284 285 286 287 288 289 290 292 294 295 297 298 301 304 307 309 310 312 316 318
257 256 255 256 257 256 255 254 253 253 252 251 250 250 250 248 249 248 247 247 243 240 240 243 246 245 244 246 240 233 235 236 236 238 241 242 242 243 245 247 248 249 249 248 249 250 251 253 254 254 254 255 256 259 261 262 263 265 267 269 271 273 275 277 280 282 283 284 286 287 288 290 291 293 295 297 299 302 305 306 306 308 311 314 317
258 257 256 257 257 257 257 255 255 255 255 254 252 251 252 251 250 249 249 249 246 244 243 244 246 247 249 252 251 244 240 240 239 239 240 243 244 244 245 247 249 250 250 250 250 250 250 251 253 254 254 254 255 257 260 262 264 265 268 269 271 272 274 276 279 280 281 282 284 286 287 289 291 293 294 297 300 303 305 306 306 307 309 311 313
259 258 257 257 257 258 258 256 255 256 256 257 256 253 252 252 252 251 250 250 248 248 248 246 245 247 249 251 253 253 249 245 244 243 243 244 246 247 246 246 248 249 251 252 251 251 251 251 252 253 253 254 255 256 259 261 263 265 268 270 270 271 273 275 277 279 280 282 283 284 285 287 289 292 294 297 300 302 305 306 305 307 309 310 311
263 262 261 259 258 258 259 259 257 255 255 256 257 256 254 253 252 252 252 250 249 249 250 249 246 246 248 250 251 252 251 249 248 248 248 247 247 248 249 248 248 248 251 253 253 253 253 252 252 253 253 254 255 256 257 260 262 263 265 269 270 271 272 274 276 278 280 281 281 282 283 285 287 291 293 295 298 300 303 304 304 308 312 312 311
265 265 265 263 261 260 259 260 260 258 256 255 256 256 256 255 254 253 252 251 251 250 249 250 249 246 246 248 249 249 250 251 250 250 250 249 248 248 249 250 250 249 250 252 254 255 255 253 252 254 255 255 255 257 258 260 262 263 263 266 269 270 272 273 274 276 277 279 279 280 281 284 286 289 291 292 295 299 301 302 303 306 309 310 309
263 265 266 266 265 263 261 260 261 261 259 257 255 255 256 256 255 254 253 251 251 251 250 250 250 248 245 246 248 248 249 251 250 250 251 249 249 249 249 250 251 251 251 251 253 255 256 255 253 254 256 256 256 258 260 262 263 264 264 264 267 269 271 273 273 274 275 276 277 279 281 283 285 288 290 291 293 296 298 299 301 303 305 306 307
260 262 264 265 266 265 263 261 260 260 260 259 257 256 255 255 255 254 253 252 252 251 250 249 249 249 248 247 248 248 249 251 250 250 252 251 251 251 251 251 251 252 252 251 252 253 255 256 255 255 255 256 257 258 260 262 264 265 265 265 267 269 270 271 272 272 273 274 276 279 281 282 285 287 289 290 292 293 294 295 297 299 300 303 304
258 260 261 263 264 265 265 263 261 260 259 260 258 257 255 255 255 255 254 253 252 251 250 249 248 249 249 249 249 248 248 250 251 251 253 254 254 253 252 251 251 252 253 253 252 252 253 255 256 256 256 255 255 256 258 259 261 264 266 266 267 269 270 270 269 270 271 274 276 278 279 281 284 286 287 287 289 290 290 292 294 296 297 299 301
260 261 262 263 264 264 264 264 263 261 259 259 259 258 255 254 255 255 254 252 251 251 251 249 248 248 248 248 249 249 248 250 252 253 254 255 256 256 254 251 250 251 254 256 255 254 253 253 254 255 256 255 255 256 257 259 261 264 265 265 265 266 268 268 268 269 271 272 274 276 277 280 282 284 284 285 286 287 289 291 293 295 296 297 299
265 265 266 266 266 266 265 264 264 263 261 260 259 258 257 254 254 255 255 254 252 250 250 250 249 248 247 247 247 248 249 250 251 252 254 255 255 257 257 252 248 248 252 255 258 257 255 254 254 253 253 254 255 256 257 259 261 263 264 264 263 264 264 265 265 267 269 270 272 274 275 278 280 281 282 283 284 286 288 290 292 293 294 296 298
271 271 271 271 270 269 268 266 265 263 262 261 260 259 258 256 254 253 254 254 253 251 250 249 249 249 248 248 247 247 248 249 250 251 253 254 255 256 257 254 249 247 249 253 258 261 260 257 255 253 252 252 252 254 256 258 260 260 261 262 263 262 262 262 263 265 267 268 270 272 273 275 277 278 280 281 283 285 287 288 290 291 293 294 296
276 276 276 275 274 273 272 270 267 265 262 261 260 259 259 258 256 254 253 253 254 253 251 249 249 249 249 249 249 248 248 248 250 251 251 252 254 254 256 256 253 249 249 250 253 258 260 260 257 254 252 252 251 252 254 255 255 256 258 260 261 261 260 260 262 263 265 267 268 270 272 273 275 276 279 281 282 284 285 286 288 290 292 293 295
277 278 278 278 277 276 275 273 271 268 265 261 259 258 258 258 257 257 255 253 253 253 253 251 249 248 249 249 250 249 249 248 249 251 251 251 252 253 253 255 255 252 249 248 249 252 256 259 259 257 254 252 252 252 251 251 252 254 256 258 259 259 258 259 261 262 264 266 267 269 270 271 273 275 278 279 281 282 284 285 287 289 291 292 294
278 278 278 278 278 277 276 275 273 271 268 265 261 259 258 257 257 257 256 255 254 253 253 252 251 249 248 248 249 250 250 249 249 250 251 251 252 252 252 253 255 254 252 249 248 250 252 254 257 259 258 254 251 251 251 250 250 252 253 256 257 257 257 259 261 262 263 264 265 267 268 270 272 275 277 278 279 281 282 284 286 289 290 292 294
279 279 279 278 277 277 276 275 273 271 269 267 264 261 258 257 257 257 256 256 255 254 253 253 252 251 249 248 248 249 250 249 248 249 250 251 251 252 252 252 252 253 254 251 248 251 252 250 253 258 260 259 255 253 253 251 250 250 251 254 256 256 257 259 261 262 263 263 264 266 268 270 272 274 275 276 277 279 281 284 286 288 290 293 295
279 279 278 278 277 276 275 273 271 270 269 267 265 263 260 257 257 258 257 256 255 255 254 254 253 252 251 250 249 248 249 249 249 248 249 250 251 251 251 252 251 251 253 252 250 252 253 249 250 255 258 262 260 255 254 252 249 249 249 251 253 255 257 258 260 262 262 263 264 266 267 269 271 272 273 274 276 279 281 284 286 288 290 293 296
279 278 278 277 276 275 274 272 270 268 266 265 264 263 261 259 257 257 258 258 256 255 254 254 254 253 252 251 250 249 248 248 249 249 248 249 250 251 251 251 251 250 251 252 251 253 254 251 250 251 255 260 259 255 254 253 249 247 246 248 251 253 255 257 259 261 262 263 264 265 267 268 269 270 271 273 275 278 281 283 286 288 291 293 295
278 277 276 276 275 274 273 272 270 268 265 264 262 262 261 260 258 257 257 258 258 257 255 253 253 253 253 252 251 251 250 249 248 249 249 248 249 250 251 251 251 250 249 250 251 253 254 254 253 252 252 255 255 254 256 260 256 250 246 246 248 251 252 255 257 259 261 262 263 264 265 266 267 268 270 272 274 276 279 282 285 288 290 292 293
276 276 275 274 273 272 271 270 270 269 267 264 262 261 260 260 259 258 257 257 257 258 257 255 252 251 252 252 251 251 251 250 249 248 248 248 248 249 250 251 251 250 249 249 250 251 252 254 253 251 249 249 251 254 257 261 262 258 252 247 245 247 250 253 255 257 259 261 261 262 263 264 265 266 268 271 272 275 278 281 285 287 288 290 291
275 275 274 274 273 272 271 270 269 269 268 266 264 262 260 260 260 258 257 256 256 256 257 257 255 253 251 251 251 250 250 250 250 249 248 247 248 248 248 250 251 251 250 248 248 250 252 253 252 248 242 241 247 253 254 255 258 259 257 252 247 245 248 251 253 255 256 258 259 260 261 262 262 263 266 269 270 273 276 280 283 285 287 288 289
275 275 274 274 273 272 271 271 270 269 268 267 265 263 261 260 260 260 258 257 256 256 255 256 256 255 253 251 250 250 250 249 249 249 248 247 247 248 248 248 250 251 251 249 248 248 250 252 252 249 242 238 244 250 250 249 252 255 258 258 252 248 248 249 252 253 254 256 257 258 259 259 260 261 263 267 269 271 274 277 281 283 285 285 287
275 275 275 275 274 273 272 271 270 269 268 267 266 264 262 260 260 260 259 258 256 256 255 255 254 254 254 253 251 249 249 249 249 248 248 247 246 246 247 247 248 250 250 250 249 248 248 250 252 251 248 246 248 252 250 245 247 253 256 257 256 254 252 250 250 251 252 254 254 255 257 258 258 259 261 264 266 268 271 275 279 282 282 283 285
276 276 276 275 275 274 273 271 270 269 269 268 267 266 264 262 260 259 258 258 257 256 255 255 254 253 253 253 252 251 249 249 249 248 247 247 246 245 245 246 247 248 249 249 249 248 247 248 249 250 250 250 250 252 251 246 244 249 254 257 261 263 259 253 250 250 251 253 254 254 255 256 257 257 258 260 263 266 270 274 279 280 280 282 285
277 276 276 276 275 274 273 272 271 270 269 268 267 267 265 264 262 259 258 257 256 256 255 255 254 253 252 252 252 252 250 249 249 248 248 247 246 245 244 244 245 246 248 248 248 248 248 248 249 249 249 249 249 250 252 251 248 250 256 260 261 261 261 260 256 254 253 252 253 255 256 257 258 257 257 259 262 266 271 275 277 277 278 282 285
277 277 276 276 275 274 273 273 271 270 269 268 267 266 265 265 263 261 259 257 256 255 254 254 254 253 252 252 251 251 250 249 248 249 248 247 247 246 245 244 244 244 246 247 247 248 247 246 247 248 248 248 249 249 252 255 254 254 255 257 258 257 258 261 262 262 260 256 255 256 258 259 260 260 259 260 262 267 272 275 275 275 278 282 284
278 278 277 276 276 275 274 273 272 271 270 269 268 266 265 264 263 262 261 258 257 255 254 253 253 253 253 252 251 250 250 249 248 248 248 248 247 247 246 245 245 244 244 245 246 246 247 245 245 247 248 249 250 251 253 255 255 253 252 253 257 258 258 260 261 265 269 266 262 262 261 261 261 261 260 261 264 268 272 273 273 275 278 280 283
279 279 279 278 277 277 276 274 273 272 271 270 268 267 266 265 264 263 262 260 258 256 255 253 252 252 252 251 250 250 249 249 248 247 247 248 247 247 246 245 245 244 244 244 244 245 246 247 247 247 248 250 251 251 252 253 253 251 250 252 255 257 258 261 264 266 269 271 269 267 264 262 261 261 261 263 266 269 271 271 272 275 277 279 282
281 280 280 279 279 278 277 275 274 272 271 270 269 267 266 265 264 263 262 261 260 258 256 254 252 251 250 251 250 250 249 248 248 247 246 246 247 247 247 245 245 244 244 244 244 243 244 247 248 246 244 244 246 247 247 249 251 250 249 250 253 255 256 259 263 266 268 269 269 267 265 264 262 261 262 264 267 269 270 270 271 274 277 279 282
283 282 281 280 279 278 277 275 274 273 272 271 270 269 267 266 266 264 263 262 261 260 258 256 254 251 250 249 249 249 249 248 247 247 247 246 245 246 246 246 244 243 243 243 243 243 242 243 246 245 242 241 243 245 246 248 251 250 248 248 250 253 257 260 262 263 263 264 265 266 266 266 264 263 263 264 266 268 268 269 271 273 276 279 282
284 283 282 281 280 279 277 276 275 273 272 272 271 270 269 268 267 266 265 264 262 261 259 257 255 253 251 249 248 248 248 248 247 247 246 246 245 244 244 245 244 243 243 242 242 242 242 241 243 244 242 242 243 245 246 247 248 249 249 248 250 253 257 258 258 259 259 261 263 266 268 267 266 264 263 264 267 268 268 269 271 273 275 279 282
285 284 283 281 281 280 279 278 276 275 274 273 272 271 270 269 268 267 266 265 263 261 260 258 257 254 252 250 248 246 246 247 247 247 246 246 245 244 243 244 244 243 242 241 241 240 241 242 242 242 242 242 243 244 244 244 246 248 249 247 247 249 251 252 254 257 260 261 263 265 268 269 267 264 262 265 269 270 270 270 271 272 275 278 281
287 285 284 283 282 281 280 279 278 276 275 274 273 272 271 269 268 267 266 265 263 262 260 259 258 256 253 251 249 246 245 244 245 246 246 246 245 244 243 243 243 243 242 241 240 240 240 240 241 241 240 241 242 242 243 243 244 244 244 243 243 244 247 249 252 255 259 262 263 264 267 270 268 263 262 266 271 273 271 270 269 271 274 278 280
287 286 285 284 283 282 280 279 278 277 276 275 274 273 272 270 268 267 266 264 263 262 260 259 258 257 255 253 250 248 245 244 243 244 245 246 245 244 243 242 242 242 241 240 240 240 240 239 240 240 240 239 239 238 239 240 239 238 239 242 244 245 248 249 250 253 258 262 262 263 265 269 268 263 264 269 273 274 272 268 268 271 274 277 279
287 287 286 285 284 282 281 280 279 278 277 275 275 273 272 272 270 268 266 265 263 262 260 259 257 256 255 254 252 249 247 245 243 243 244 245 245 244 242 241 240 240 241 240 239 240 240 240 239 240 240 239 238 237 235 235 235 234 235 239 242 244 247 249 249 251 254 258 261 262 264 267 268 264 265 270 273 273 271 267 266 269 273 276 276
288 288 287 286 284 283 282 281 280 279 278 277 277 276 275 274 273 271 269 267 265 263 261 259 258 256 254 253 251 250 248 246 244 243 243 244 244 243 242 240 239 239 240 239 239 239 240 240 239 239 238 238 237 236 235 234 235 234 234 238 240 242 245 249 250 250 252 255 259 262 263 266 267 265 266 270 271 271 270 267 266 268 272 276 276
Height
5813 5814 5816 5819 5821 5822 5824 5826 5827 5829 5830 5832 5833 5835 5836 5837 5839 5841 5842 5844 5846 5847 5849 5849 5851 5852 5854 5855 5857 5859 5860 5861 5862 5863 5864 5865 5867 5869 5870 5871 5872 5873 5874 5874 5875 5876 5876 5877 5877 5878 5878 5879 5880 5880 5880 5880 5880 5880 5879 5879 5879 5879 5878 5878 5877 5877 5876 5876 5875 5875 5874 5874 5873 5872 5872 5871 5870 5869 5868 5867 5866 5865 5864 5863 5861
5812 5812 5815 5818 5819 5820 5821 5823 5825 5826 5828 5829 5831 5832 5834 5836 5837 5839 5840 5842 5844 5846 5847 5848 5849 5850 5852 5854 5855 5857 5858 5859 5860 5861 5862 5864 5865 5867 5868 5870 5871 5872 5872 5873 5874 5875 5876 5876 5877 5877 5877 5878 5879 5879 5879 5879 5879 5879 5879 5878 5878 5878 5878 5877 5877 5876 5876 5875 5875 5874 5873 5873 5872 5872 5871 5870 5869 5868 5868 5867 5865 5864 5863 5862 5861
5810 5811 5813 5816 5818 5819 5819 5821 5823 5823 5824 5826 5828 5829 5831 5833 5835 5836 5838 5840 5842 5844 5845 5846 5848 5849 5850 5852 5853 5855 5856 5858 5858 5859 5861 5862 5863 5865 5866 5868 5869 5870 5871 5872 5873 5874 5875 5875 5876 5876 5876 5877 5878 5878 5878 5878 5878 5878 5878 5877 5878 5877 5877 5876 5876 5875 5875 5874 5874 5873 5873 5872 5871 5871 5870 5869 5868 5868 5867 5866 5865 5864 5863 5862 5861
5809 5811 5812 5814 5816 5817 5817 5819 5821 5821 5821 5822 5825 5827 5829 5831 5832 5834 5836 5838 5840 5842 5844 5845 5846 5848 5849 5850 5852 5853 5855 5856 5857 5858 5859 5861 5862 5863 5865 5866 5867 5868 5869 5871 5872 5873 5873 5874 5875 5875 5875 5876 5876 5877 5877 5877 5877 5877 5876 5876 5877 5877 5876 5875 5875 5875 5874 5874 5873 5873 5872 5871 5870 5870 5869 5869 5868 5867 5866 5865 5864 5863 5862 5861 5860
5806 5809 5811 5812 5813 5814 5815 5817 5819 5820 5820 5821 5824 5826 5827 5829 5830 5832 5834 5836 5838 5840 5842 5843 5845 5846 5847 5848 5850 5851 5853 5854 5855 5856 5858 5859 5860 5861 5862 5864 5865 5866 5867 5869 5870 5871 5872 5873 5873 5873 5874 5874 5875 5876 5876 5876 5875 5875 5875 5876 5876 5876 5875 5874 5874 5874 5873 5873 5872 5872 5871 5870 5870 5869 5869 5868 5868 5867 5866 5865 5864 5863 5862 5861 5860
5804 5806 5808 5809 5811 5812 5812 5814 5816 5818 5819 5820 5822 5823 5824 5826 5828 5830 5831 5833 5836 5837 5839 5841 5842 5843 5844 5845 5847 5849 5851 5852 5853 5854 5856 5858 5859 5860 5860 5862 5863 5864 5865 5867 5868 5869 5870 5871 5871 5872 5872 5873 5873 5874 5874 5874 5874 5874 5874 5874 5875 5875 5874 5874 5873 5873 5872 5872 5871 5871 5871 5870 5869 5869 5869 5868 5867 5866 5865 5865 5863 5862 5861 5860 5859
5803 5804 5805 5806 5808 5810 5810 5811 5813 5815 5816 5817 5819 5820 5822 5823 5825 5827 5829 5831 5833 5835 5836 5838 5839 5840 5841 5843 5845 5847 5848 5850 5851 5852 5854 5855 5857 5858 5859 5860 5861 5862 5863 5865 5865 5867 5868 5868 5869 5870 5870 5871 5871 5872 5873 5873 5873 5873 5873 5873 5874 5873 5873 5873 5872 5872 5871 5871 5870 5870 5870 5869 5869 5868 5868 5868 5867 5866 5865 5864 5863 5862 5861 5860 5858
5801 5803 5803 5803 5805 5808 5809 5809 5810 5811 5813 5816 5817 5817 5819 5821 5823 5825 5826 5828 5830 5832 5834 5835 5836 5837 5839 5840 5842 5844 5845 5847 5849 5850 5852 5853 5855 5856 5857 5858 5859 5860 5861 5862 5863 5864 5865 5866 5867 5867 5868 5869 5869 5870 5870 5871 5871 5871 5872 5872 5872 5872 5872 5872 5871 5871 5871 5870 5869 5869 5869 5868 5868 5867 5867 5867 5866 5865 5864 5863 5862 5861 5860 5859 5857
5800 5800 5801 5801 5802 5804 5806 5808 5809 5809 5811 5813 5814 5815 5817 5819 5821 5822 5824 5825 5827 5829 5830 5831 5833 5834 5836 5837 5838 5840 5842 5844 5846 5847 5849 5851 5853 5853 5855 5856 5857 5858 5859 5860 5860 5861 5862 5863 5864 5865 5866 5866 5867 5868 5868 5869 5869 5869 5870 5870 5871 5870 5870 5870 5870 5870 5869 5869 5868 5868 5867 5867 5867 5866 5866 5866 5865 5864 5863 5862 5861 5860 5859 5857 5856
5797 5797 5798 5799 5800 5802 5803 5805 5807 5808 5809 5810 5811 5812 5814 5816 5818 5820 5822 5823 5824 5825 5827 5828 5830 5831 5833 5834 5835 5837 5839 5841 5842 5844 5846 5848 5850 5851 5852 5853 5854 5855 5856 5857 5858 5859 5860 5861 5862 5862 5863 5864 5865 5866 5866 5867 5867 5868 5868 5868 5868 5868 5869 5868 5868 5868 5868 5868 5867 5866 5866 5866 5865 5865 5865 5864 5864 5863 5862 5861 5860 5859 5858 5856 5855
5794 5794 5795 5797 5798 5800 5801 5802 5804 5805 5806 5807 5808 5809 5811 5813 5815 5817 5819 5820 5821 5822 5823 5825 5827 5828 5829 5831 5832 5834 5836 5837 5839 5841 5843 5845 5847 5848 5849 5850 5851 5852 5853 5854 5856 5857 5858 5858 5859 5860 5861 5862 5863 5863 5864 5865 5865 5866 5866 5866 5866 5866 5866 5866 5866 5867 5866 5866 5866 5865 5864 5864 5863 5863 5863 5863 5862 5862 5861 5860 5859 5858 5856 5855 5854
5792 5792 5793 5793 5795 5797 5798 5800 5801 5802 5804 5805 5805 5806 5808 5810 5812 5814 5816 5817 5818 5819 5819 5822 5824 5825 5827 5828 5829 5830 5832 5834 5836 5837 5839 5842 5844 5845 5846 5847 5848 5849 5850 5851 5852 5854 5855 5855 5856 5857 5859 5860 5860 5861 5861 5862 5863 5864 5864 5864 5864 5864 5865 5864 5865 5865 5865 5865 5864 5863 5863 5862 5862 5862 5862 5861 5861 5860 5859 5859 5858 5856 5855 5854 5853
5788 5790 5790 5790 5791 5793 5795 5797 5798 5800 5802 5802 5803 5804 5805 5806 5808 5810 5812 5813 5815 5816 5816 5818 5820 5822 5824 5825 5826 5827 5828 5830 5833 5835 5836 5838 5840 5842 5843 5844 5845 5846 5847 5848 5849 5851 5852 5853 5853 5855 5857 5857 5857 5858 5859 5860 5861 5861 5862 5862 5862 5863 5863 5863 5863 5863 5863 5863 5862 5861 5861 5860 5860 5860 5860 5859 5859 5858 5858 5857 5856 5855 5854 5853 5851
5785 5786 5787 5788 5789 5790 5791 5793 5795 5797 5798 5799 5800 5801 5802 5803 5804 5807 5808 5809 5811 5812 5812 5814 5816 5818 5820 5822 5822 5824 5826 5828 5830 5831 5832 5834 5836 5837 5839 5840 5842 5843 5844 5845 5846 5848 5849 5851 5851 5852 5854 5855 5855 5856 5857 5858 5858 5859 5859 5860 5861 5861 5861 5861 5861 5861 5861 5861 5860 5859 5859 5858 5858 5858 5858 5858 5857 5857 5856 5855 5854 5854 5852 5851 5850
5782 5783 5784 5785 5786 5787 5789 5790 5791 5792 5794 5795 5796 5797 5799 5799 5801 5803 5804 5805 5806 5808 5809 5811 5812 5813 5815 5818 5819 5820 5823 5825 5827 5827 5828 5830 5832 5833 5835 5836 5838 5839 5840 5842 5844 5845 5846 5847 5849 5849 5850 5852 5852 5853 5854 5855 5855 5856 5857 5858 5859 5859 5859 5859 5859 5858 5859 5859 5858 5857 5857 5856 5856 5856 5856 5855 5855 5855 5854 5853 5852 5852 5851 5850 5849
5779 5780 5781 5781 5783 5784 5786 5787 5787 5788 5789 5791 5792 5793 5795 5796 5797 5799 5800 5802 5803 5804 5806 5807 5807 5808 5810 5812 5814 5816 5819 5821 5822 5822 5823 5826 5828 5829 5831 5832 5834 5835 5837 5838 5840 5841 5842 5843 5845 5846 5848 5849 5850 5850 5851 5852 5852 5853 5854 5855 5856 5856 5857 5857 5856 5856 5856 5856 5856 5855 5855 5854 5854 5854 5853 5853 5853 5852 5852 5851 5850 5850 5849 5848 5847
5776 5777 5778 5778 5779 5781 5782 5783 5783 5784 5785 5787 5789 5790 5791 5792 5793 5794 5796 5798 5800 5800 5801 5803 5803 5804 5805 5806 5809 5812 5815 5816 5816 5818 5820 5821 5823 5825 5827 5828 5830 5831 5833 5834 5836 5837 5839 5840 5841 5843 5844 5846 5847 5847 5847 5848 5849 5850 5851 5852 5853 5853 5854 5854 5854 5853 5853 5854 5854 5853 5853 5852 5852 5852 5851 5851 5851 5850 5849 5849 5848 5847 5847 5846 5845
5773 5774 5775 5775 5776 5777 5778 5779 5780 5781 5782 5783 5784 5786 5786 5788 5788 5790 5791 5793 5795 5795 5796 5799 5800 5799 5801 5802 5805 5808 5811 5810 5812 5815 5816 5817 5819 5821 5823 5824 5826 5828 5829 5830 5832 5833 5835 5836 5838 5839 5840 5842 5843 5844 5845 5844 5846 5847 5848 5848 5850 5850 5851 5852 5852 5850 5850 5851 5851 5851 5850 5850 5849 5849 5849 5849 5848 5848 5847 5846 5846 5845 5844 5843 5842
5769 5770 5771 5772 5773 5774 5774 5775 5776 5777 5778 5779 5780 5781 5782 5783 5784 5786 5787 5789 5790 5791 5793 5795 5795 5795 5798 5798 5799 5803 5806 5807 5808 5810 5812 5814 5815 5816 5818 5820 5821 5823 5825 5826 5828 5828 5830 5833 5834 5834 5836 5837 5839 5841 5841 5841 5843 5845 5845 5844 5845 5847 5848 5849 5849 5847 5847 5848 5848 5848 5847 5847 5847 5847 5846 5846 5846 5845 5845 5844 5843 5842 5842 5841 5840
5765 5766 5767 5769 5770 5770 5771 5772 5773 5774 5775 5775 5776 5777 5778 5779 5780 5782 5784 5785 5786 5787 5789 5791 5791 5792 5795 5795 5795 5797 5800 5802 5804 5806 5808 5810 5811 5812 5814 5815 5816 5819 5820 5821 5823 5824 5827 5829 5830 5830 5831 5833 5835 5837 5837 5837 5839 5842 5843 5841 5841 5843 5844 5845 5846 5844 5843 5845 5845 5844 5844 5844 5844 5844 5844 5844 5843 5843 5842 5842 5841 5840 5839 5838 5837
5762 5762 5763 5764 5766 5767 5768 5768 5769 5770 5771 5772 5772 5773 5773 5775 5776 5777 5779 5780 5782 5783 5786 5787 5787 5789 5791 5791 5791 5792 5795 5797 5800 5802 5802 5804 5806 5808 5809 5810 5811 5814 5816 5817 5818 5820 5822 5824 5825 5826 5828 5830 5831 5833 5833 5834 5835 5838 5840 5839 5838 5839 5840 5842 5842 5841 5840 5841 5841 5841 5841 5841 5841 5841 5841 5841 5840 5840 5840 5839 5839 5838 5837 5836 5835
5758 5759 5759 5760 5761 5763 5764 5765 5765 5766 5767 5768 5768 5769 5769 5770 5771 5772 5774 5776 5777 5778 5781 5782 5783 5785 5786 5786 5786 5788 5790 5792 5795 5797 5797 5798 5800 5802 5804 5805 5806 5809 5811 5812 5814 5815 5816 5819 5820 5822 5824 5825 5827 5829 5830 5830 5831 5833 5835 5836 5835 5835 5837 5838 5839 5838 5836 5836 5837 5837 5837 5837 5837 5838 5838 5837 5837 5837 5837 5836 5836 5835 5834 5833 5832
5756 5756 5756 5756 5757 5758 5759 5760 5761 5762 5762 5763 5764 5765 5765 5766 5766 5767 5768 5770 5772 5773 5774 5776 5778 5779 5781 5782 5783 5785 5787 5788 5790 5791 5791 5793 5795 5797 5799 5800 5801 5803 5805 5807 5809 5810 5811 5813 5815 5818 5819 5821 5823 5825 5826 5827 5827 5828 5830 5831 5831 5831 5833 5834 5835 5833 5833 5833 5833 5833 5834 5833 5834 5834 5834 5834 5834 5834 5833 5833 5833 5833 5832 5831 5830
5752 5753 5753 5753 5753 5754 5754 5755 5757 5758 5758 5759 5759 5760 5761 5761 5761 5762 5763 5765 5766 5767 5768 5770 5772 5773 5775 5777 5778 5780 5782 5783 5786 5787 5786 5788 5790 5792 5794 5794 5795 5797 5800 5801 5803 5804 5807 5808 5810 5813 5814 5816 5817 5819 5821 5822 5824 5824 5826 5827 5826 5826 5828 5830 5830 5829 5829 5829 5829 5830 5830 5830 5830 5830 5831 5831 5831 5830 5830 5830 5830 5829 5829 5828 5827
5748 5748 5749 5749 5749 5750 5750 5750 5751 5752 5753 5754 5754 5755 5757 5757 5757 5757 5758 5759 5761 5762 5763 5765 5766 5767 5769 5771 5772 5775 5777 5778 5781 5781 5781 5783 5785 5787 5790 5790 5789 5792 5794 5795 5796 5799 5801 5804 5806 5807 5809 5811 5812 5814 5816 5818 5820 5822 5822 5822 5822 5822 5823 5825 5825 5824 5825 5825 5825 5826 5826 5826 5826 5827 5827 5827 5827 5827 5827 5826 5826 5826 5825 5824 5824
5742 5743 5744 5744 5745 5745 5745 5746 5746 5747 5748 5749 5749 5750 5751 5752 5753 5753 5753 5753 5755 5756 5757 5759 5761 5762 5763 5765 5767 5768 5770 5773 5775 5775 5776 5778 5780 5782 5785 5784 5784 5786 5788 5788 5789 5793 5795 5798 5800 5800 5802 5806 5807 5809 5812 5815 5817 5818 5817 5817 5817 5818 5819 5820 5820 5820 5820 5820 5821 5822 5822 5822 5822 5823 5823 5823 5823 5823 5823 5823 5822 5822 5822 5821 5820
5736 5737 5738 5738 5739 5739 5740 5741 5741 5741 5742 5743 5744 5744 5745 5746 5748 5748 5748 5748 5749 5750 5752 5753 5755 5756 5757 5759 5760 5762 5764 5766 5768 5770 5771 5772 5774 5777 5778 5778 5779 5781 5783 5784 5784 5786 5789 5792 5793 5794 5796 5799 5802 5804 5807 5812 5813 5812 5812 5812 5813 5813 5814 5815 5815 5816 5816 5816 5817 5817 5818 5818 5818 5819 5819 5819 5819 5819 5819 5819 5819 5818 5818 5817 5817
5729 5730 5731 5731 5732 5733 5734 5734 5735 5736 5736 5737 5737 5738 5739 5740 5741 5742 5743 5743 5743 5744 5746 5747 5749 5750 5751 5752 5754 5755 5758 5760 5761 5763 5765 5767 5768 5770 5772 5773 5774 5775 5778 5780 5780 5780 5782 5784 5786 5788 5790 5791 5795 5800 5803 5806 5807 5806 5806 5808 5808 5809 5809 5809 5810 5811 5812 5812 5813 5813 5814 5814 5814 5815 5815 5815 5815 5815 5815 5815 5815 5814 5814 5814 5813
5724 5724 5725 5725 5725 5726 5726 5727 5728 5729 5730 5730 5731 5732 5732 5733 5734 5735 5736 5737 5737 5738 5739 5740 5742 5743 5744 5746 5747 5748 5751 5753 5755 5756 5758 5760 5762 5764 5765 5767 5768 5770 5773 5775 5776 5776 5778 5779 5778 5780 5783 5785 5790 5795 5796 5798 5800 5800 5802 5803 5804 5804 5804 5804 5806 5806 5807 5808 5808 5809 5810 5810 5810 5811 5811 5811 5810 5811 5811 5811 5811 5811 5810 5810 5809
5718 5718 5718 5719 5719 5719 5719 5720 5721 5722 5722 5723 5724 5725 5726 5727 5727 5728 5729 5730 5731 5732 5732 5733 5735 5737 5738 5739 5740 5741 5743 5746 5748 5750 5751 5753 5755 5756 5759 5760 5762 5764 5767 5769 5770 5772 5774 5775 5774 5772 5774 5779 5785 5787 5788 5791 5793 5795 5797 5798 5798 5799 5799 5800 5801 5802 5803 5803 5804 5805 5805 5806 5806 5807 5807 5807 5806 5807 5807 5807 5807 5807 5806 5806 5805
5712 5712 5712 5712 5712 5712 5713 5713 5714 5714 5715 5716 5717 5718 5719 5720 5720 5721 5722 5723 5724 5725 5726 5727 5728 5729 5731 5732 5734 5735 5736 5738 5741 5743 5745 5746 5748 5749 5751 5754 5756 5758 5760 5762 5764 5768 5768 5770 5771 5768 5767 5773 5778 5780 5782 5784 5787 5789 5792 5793 5793 5794 5795 5796 5797 5798 5798 5799 5800 5800 5801 5802 5802 5803 5803 5803 5802 5802 5803 5803 5803 5803 5802 5802 5801
5705 5706 5706 5706 5706 5706 5706 5707 5707 5708 5708 5709 5709 5711 5712 5713 5713 5714 5715 5716 5717 5718 5718 5719 5721 5722 5723 5725 5727 5729 5729 5731 5733 5736 5738 5739 5741 5742 5744 5746 5749 5751 5753 5754 5758 5763 5763 5763 5766 5765 5764 5766 5770 5773 5776 5777 5779 5783 5786 5787 5787 5788 5790 5792 5792 5793 5794 5795 5796 5796 5797 5797 5798 5798 5799 5799 5798 5798 5799 5799 5799 5799 5798 5798 5797
5698 5699 5699 5699 5699 5699 5699 5699 5700 5701 5701 5702 5702 5703 5704 5705 5706 5707 5708 5708 5710 5711 5712 5712 5713 5715 5716 5718 5720 5721 5723 5724 5726 5728 5731 5732 5733 5735 5737 5739 5742 5745 5747 5748 5751 5756 5758 5756 5758 5760 5761 5761 5762 5767 5770 5770 5772 5776 5779 5780 5781 5783 5785 5787 5788 5789 5790 5791 5791 5792 5793 5793 5794 5794 5794 5794 5794 5794 5794 5794 5795 5795 5794 5794 5792
5692 5692 5692 5693 5693 5693 5692 5692 5692 5693 5694 5695 5695 5696 5697 5698 5699 5700 5701 5701 5702 5703 5705 5706 5706 5707 5709 5711 5713 5714 5715 5717 5720 5721 5723 5725 5727 5729 5730 5732 5734 5737 5740 5742 5744 5748 5751 5751 5751 5753 5756 5756 5757 5762 5765 5766 5768 5769 5771 5774 5775 5777 5780 5782 5783 5784 5785 5786 5787 5788 5789 5789 5789 5790 5790 5790 5790 5790 5790 5790 5790 5790 5790 5789 5788
5684 5685 5685 5686 5686 5686 5686 5685 5685 5686 5687 5688 5688 5689 5690 5690 5691 5692 5693 5694 5695 5696 5697 5698 5699 5700 5701 5703 5705 5707 5708 5710 5712 5714 5716 5718 5720 5722 5724 5725 5727 5729 5733 5736 5737 5740 5743 5745 5745 5748 5750 5751 5753 5756 5759 5762 5764 5763 5764 5767 5770 5772 5775 5776 5778 5779 5781 5781 5782 5783 5784 5785 5785 5785 5785 5785 5786 5786 5786 5786 5786 5786 5786 5785 5784
5677 5678 5678 5679 5679 5679 5679 5679 5678 5679 5679 5680 5681 5682 5682 5683 5684 5685 5686 5687 5688 5689 5689 5690 5692 5693 5694 5696 5698 5700 5701 5702 5705 5707 5709 5711 5713 5715 5717 5719 5720 5722 5726 5728 5730 5733 5735 5737 5740 5742 5744 5745 5747 5749 5752 5756 5760 5760 5759 5761 5764 5767 5769 5771 5773 5774 5776 5776 5776 5778 5779 5780 5780 5781 5781 5781 5781 5781 5782 5782 5782 5782 5781 5781 5779
5671 5671 5671 5672 5672 5672 5672 5672 5672 5672 5672 5672 5673 5674 5675 5675 5676 5677 5678 5679 5680 5681 5683 5684 5685 5686 5687 5689 5690 5692 5693 5695 5697 5699 5701 5704 5706 5708 5710 5712 5713 5715 5718 5721 5723 5725 5727 5730 5733 5735 5736 5738 5740 5741 5743 5751 5756 5756 5755 5756 5758 5761 5764 5766 5768 5769 5770 5770 5771 5773 5774 5774 5775 5775 5776 5776 5776 5777 5777 5777 5777 5777 5776 5776 5775
5664 5664 5664 5664 5665 5665 5665 5665 5665 5665 5665 5665 5665 5666 5667 5668 5668 5669 5670 5672 5673 5674 5675 5677 5678 5679 5680 5682 5684 5685 5686 5688 5690 5692 5693 5696 5699 5701 5703 5705 5706 5708 5711 5714 5716 5718 5721 5723 5726 5728 5729 5731 5734 5734 5736 5745 5751 5751 5750 5751 5754 5757 5759 5760 5762 5764 5764 5764 5765 5767 5768 5768 5769 5770 5771 5771 5771 5772 5772 5773 5772 5772 5771 5771 5770
5657 5657 5657 5657 5657 5658 5658 5658 5658 5658 5657 5657 5657 5657 5658 5659 5660 5661 5662 5663 5665 5666 5668 5669 5670 5672 5673 5675 5677 5678 5680 5681 5682 5684 5686 5688 5691 5693 5696 5698 5699 5701 5704 5707 5709 5711 5713 5716 5718 5721 5723 5726 5728 5729 5730 5737 5743 5745 5745 5748 5751 5754 5754 5754 5755 5757 5757 5758 5759 5760 5761 5762 5763 5765 5766 5766 5766 5767 5767 5768 5768 5767 5766 5766 5766
5651 5650 5650 5650 5650 5650 5650 5650 5650 5650 5650 5650 5650 5649 5649 5650 5651 5652 5653 5655 5656 5658 5660 5661 5662 5664 5666 5668 5670 5671 5673 5675 5675 5676 5678 5681 5683 5685 5688 5690 5692 5694 5696 5700 5702 5703 5705 5709 5711 5713 5717 5719 5721 5722 5723 5727 5735 5741 5743 5745 5746 5748 5749 5749 5750 5751 5751 5752 5752 5754 5755 5757 5758 5760 5760 5761 5761 5762 5762 5763 5763 5762 5761 5761 5761
5644 5644 5643 5643 5643 5643 5643 5642 5642 5643 5642 5642 5642 5641 5641 5641 5641 5643 5644 5646 5647 5649 5651 5653 5654 5656 5657 5659 5662 5664 5666 5667 5668 5669 5671 5673 5675 5677 5680 5683 5685 5687 5690 5692 5695 5697 5699 5702 5704 5705 5708 5710 5713 5716 5717 5721 5730 5736 5737 5738 5740 5741 5743 5744 5745 5746 5746 5747 5747 5749 5750 5752 5753 5755 5755 5756 5757 5757 5757 5758 5758 5757 5756 5756 5756
5638 5637 5636 5636 5635 5635 5635 5635 5635 5635 5635 5634 5634 5633 5632 5632 5632 5633 5634 5636 5638 5640 5642 5644 5646 5647 5649 5650 5653 5655 5658 5660 5661 5663 5664 5666 5668 5670 5673 5675 5677 5680 5683 5684 5687 5690 5692 5695 5697 5698 5701 5704 5707 5710 5714 5717 5723 5728 5730 5732 5735 5736 5737 5738 5740 5741 5742 5742 5743 5744 5746 5747 5748 5749 5750 5751 5751 5752 5753 5753 5753 5752 5751 5751 5751
5631 5631 5630 5629 5628 5628 5627 5627 5627 5627 5627 5626 5625 5625 5624 5623 5623 5624 5625 5627 5629 5631 5633 5635 5637 5639 5640 5641 5644 5646 5649 5652 5654 5655 5657 5659 5661 5662 5665 5667 5669 5672 5675 5677 5680 5683 5685 5688 5690 5692 5696 5701 5702 5704 5708 5711 5715 5721 5724 5727 5729 5731 5733 5734 5734 5736 5737 5737 5737 5738 5740 5742 5743 5744 5745 5746 5747 5747 5747 5749 5749 5747 5746 5746 5747
5625 5625 5623 5622 5621 5621 5620 5619 5619 5619 5619 5618 5617 5616 5615 5615 5615 5615 5616 5617 5619 5621 5623 5625 5627 5629 5631 5633 5635 5637 5640 5643 5645 5647 5649 5651 5653 5655 5656 5659 5661 5664 5667 5670 5673 5675 5678 5681 5683 5686 5692 5696 5695 5696 5699 5704 5710 5715 5718 5720 5723 5725 5727 5729 5729 5730 5731 5731 5731 5733 5735 5737 5738 5739 5740 5741 5742 5742 5742 5744 5744 5742 5740 5741 5742
5619 5618 5616 5615 5614 5613 5612 5611 5611 5611 5610 5609 5609 5608 5607 5607 5606 5606 5607 5608 5609 5611 5613 5615 5617 5619 5622 5624 5626 5628 5631 5633 5636 5639 5641 5643 5645 5646 5648 5650 5653 5656 5659 5662 5665 5668 5671 5673 5676 5680 5685 5687 5687 5689 5693 5698 5703 5707 5710 5713 5717 5719 5722 5724 5724 5724 5724 5724 5726 5728 5730 5732 5733 5734 5735 5736 5736 5737 5738 5739 5739 5737 5735 5736 5737
5612 5611 5609 5608 5607 5606 5604 5603 5603 5603 5602 5601 5600 5600 5599 5599 5597 5597 5598 5599 5600 5602 5603 5604 5606 5609 5612 5614 5617 5620 5622 5624 5627 5630 5632 5634 5636 5638 5639 5641 5645 5649 5652 5654 5657 5661 5663 5666 5669 5673 5678 5680 5681 5684 5687 5691 5696 5699 5703 5708 5712 5714 5716 5717 5717 5717 5718 5720 5722 5724 5726 5727 5728 5729 5730 5731 5731 5732 5733 5734 5734 5732 5730 5731 5732
5605 5603 5602 5601 5599 5598 5596 5595 5594 5594 5593 5592 5591 5591 5590 5590 5589 5588 5589 5589 5590 5592 5593 5594 5596 5598 5601 5604 5607 5611 5613 5615 5618 5621 5622 5625 5627 5628 5631 5633 5637 5641 5644 5647 5650 5653 5656 5659 5662 5667 5671 5673 5675 5677 5681 5685 5690 5693 5698 5703 5706 5706 5706 5708 5711 5714 5715 5716 5717 5719 5721 5723 5723 5724 5725 5726 5726 5727 5728 5730 5729 5727 5726 5726 5727
5598 5596 5594 5593 5591 5590 5589 5587 5586 5586 5584 5583 5582 5582 5581 5580 5580 5579 5579 5579 5580 5582 5583 5584 5585 5587 5591 5594 5597 5601 5604 5607 5610 5611 5612 5614 5616 5619 5623 5625 5629 5632 5636 5640 5643 5646 5649 5652 5655 5659 5663 5665 5668 5671 5674 5679 5683 5687 5691 5695 5696 5697 5699 5703 5708 5710 5711 5712 5712 5714 5716 5717 5718 5719 5720 5722 5722 5722 5723 5724 5723 5722 5721 5722 5722
5590 5588 5586 5585 5583 5582 5580 5579 5577 5577 5576 5575 5573 5572 5571 5570 5570 5570 5569 5568 5570 5571 5573 5574 5575 5577 5580 5583 5587 5590 5594 5598 5601 5602 5602 5603 5606 5611 5614 5617 5620 5624 5628 5632 5636 5638 5642 5645 5648 5651 5655 5658 5661 5664 5667 5671 5675 5679 5684 5687 5689 5692 5695 5699 5703 5705 5706 5707 5707 5709 5711 5712 5713 5714 5716 5717 5718 5718 5718 5718 5718 5717 5717 5717 5717
5582 5580 5579 5577 5575 5574 5572 5571 5569 5568 5567 5566 5564 5563 5562 5561 5559 5559 5558 5558 5559 5561 5562 5564 5565 5567 5569 5572 5575 5578 5583 5588 5590 5592 5594 5594 5596 5601 5606 5608 5611 5615 5620 5624 5628 5632 5635 5637 5641 5644 5648 5652 5655 5658 5662 5665 5667 5672 5677 5681 5685 5688 5690 5692 5696 5699 5700 5701 5701 5703 5706 5707 5708 5710 5711 5712 5714 5714 5713 5713 5713 5713 5713 5713 5713
5575 5573 5571 5569 5568 5566 5564 5563 5561 5559 5558 5557 5555 5554 5553 5552 5550 5549 5548 5548 5549 5550 5551 5552 5554 5556 5558 5560 5563 5567 5572 5576 5578 5582 5584 5584 5586 5592 5596 5599 5603 5608 5612 5616 5620 5624 5628 5630 5633 5637 5640 5644 5647 5651 5656 5659 5662 5667 5672 5675 5678 5682 5685 5687 5690 5692 5694 5696 5697 5698 5701 5702 5703 5704 5706 5707 5708 5709 5708 5707 5708 5709 5709 5709 5708